Regional Weather Roundup
Issued by NWS Sioux Falls, SD

Home | Current Version | Previous Version | Graphics & Text | Print | Product List | Glossary Off
Versions: 1 2 3 4 5 6 7 8 9 10 11 12 13 14 15 16 17 18 19 20 21 22 23 24 25 26 27 28 29 30 31 32 33 34 35 36 37 38 39 40 41 42 43 44 45 46 47 48 49 50

000
ASUS43 KFSD 140810
RWRFSD

WEATHER ROUNDUP FOR SE SOUTH DAKOTA/SW MINNESOTA/NW IOWA
NATIONAL WEATHER SERVICE SIOUX FALLS SD
300 AM CDT MON JUL 14 2014

NOTE: "FAIR" INDICATES FEW OR NO CLOUDS BELOW 12,000 FEET WITH NO
SIGNIFICANT WEATHER AND OR OBSTRUCTIONS TO VISIBILITY.


SDZ038>040-050-052>070-140900-
SOUTHEAST SOUTH DAKOTA

CITY           SKY/WX    TMP DP  RH WIND       PRES   REMARKS
CHAMBERLAIN    CLEAR     55  48  80 NW7       30.07F
HURON          CLEAR     52  48  86 W7        30.03R
MADISON        FAIR      52  50  93 NW7       30.02S
MITCHELL       CLEAR     56  47  71 W8        30.04S
SIOUX FALLS    CLEAR     57  47  69 W7        30.00S
WINNER         FAIR      58  51  78 NW6       30.10S
YANKTON        CLEAR     61  52  72 W8        30.04S
$$

MNZ071-072-080-081-089-090-097-098-140900-
SOUTHWEST MINNESOTA

CITY           SKY/WX    TMP DP  RH WIND       PRES   REMARKS
FAIRMONT       CLEAR     55  46  71 W5        29.94S
JACKSON        CLEAR     54  48  82 W5        29.97S
LUVERNE        CLEAR     55  48  76 NW5       30.00S
MARSHALL       CLEAR     54  46  76 W9        29.96S
MONTEVIDEO     MOCLDY    57  50  77 W3        29.96S
PIPESTONE      CLEAR     57  48  72 NW7       29.99F
REDWOOD FALLS  CLEAR     56  51  84 NW8       29.94S
TRACY          CLEAR     58  48  70 W7        29.97S
WINDOM         CLEAR     54  48  82 W7        29.96F
WORTHINGTON    CLEAR     54  48  82 W9        29.99S
$$

IAZ001>003-012>014-020>022-031-032-NEZ013-014-SDZ071-140900-
NORTHWEST IOWA

CITY           SKY/WX    TMP DP  RH WIND       PRES   REMARKS
CHEROKEE       CLEAR     57  57 100 CALM      29.99S FOG
DENISON        MOCLDY    64  61  88 N3        29.97R
ESTHERVILLE    CLEAR     55  52  89 W8        29.96S
LE MARS        CLEAR     59  55  88 CALM      30.01S
ORANGE CITY    CLEAR     57  52  82 NW3       30.00S
SHELDON        CLEAR     54  52  94 W5        29.98F
SIOUX CITY     MOCLDY    64  59  83 N6        30.00S
SPENCER        CLEAR     55  52  89 W3        29.98S
STORM LAKE     CLEAR     61  54  77 NW7       29.99S
$$

ABBREVIATIONS USED IN REMARKS
   TC - TEMPERATURE IN CELSIUS
  WCI - WIND CHILL INDEX
   HX - HEAT INDEX
  VSB - VISIBILITY



USA.gov is the U.S. government's official web portal to all federal, state and local government web resources and services.